Wetterdaten: Woche 25.09.06 - 01.10.06 (KW39)
Datum Zeit Temperatur Luftfeuchte Luftdruck Niederschlag Windrichtung Wind
25.09.2006 00:00 14,7 C 97 % 1010 hPa 0,0 l/m W-NW 0,0 km/h (0 Bft)
25.09.2006 17:00 16,6 C 93 % 1011 hPa 0,0 l/m NW 5,0 km/h (1 Bft)
25.09.2006 18:00 16,2 C 96 % 1012 hPa 1,0 l/m W-NW 5,0 km/h (1 Bft)
25.09.2006 19:00 15,6 C 100 % 1012 hPa 2,0 l/m NW 8,0 km/h (2 Bft)
25.09.2006 20:00 15,3 C 100 % 1012 hPa 4,0 l/m NW 7,4 km/h (2 Bft)
25.09.2006 21:00 14,9 C 100 % 1013 hPa 4,0 l/m N-NW 8,9 km/h (2 Bft)
25.09.2006 22:00 14,0 C 100 % 1013 hPa 7,0 l/m NW 9,9 km/h (2 Bft)
25.09.2006 23:00 13,5 C 100 % 1014 hPa 10,0 l/m NW 5,0 km/h (1 Bft)
26.09.2006 00:00 13,4 C 100 % 1014 hPa 3,0 l/m S-SW 1,5 km/h (1 Bft)
26.09.2006 01:00 13,2 C 100 % 1015 hPa 3,0 l/m W-SW 2,4 km/h (1 Bft)
26.09.2006 02:00 13,0 C 100 % 1015 hPa 1,0 l/m W-SW 2,4 km/h (1 Bft)
26.09.2006 03:00 12,8 C 100 % 1015 hPa 0,0 l/m W-SW 6,8 km/h (2 Bft)
26.09.2006 04:00 12,5 C 100 % 1016 hPa 1,0 l/m SW 7,6 km/h (2 Bft)
26.09.2006 05:00 12,4 C 100 % 1016 hPa 0,0 l/m W-SW 6,9 km/h (2 Bft)
26.09.2006 06:00 12,3 C 100 % 1016 hPa 0,0 l/m W 6,7 km/h (2 Bft)
26.09.2006 07:00 12,2 C 100 % 1016 hPa 0,0 l/m W 7,3 km/h (2 Bft)
26.09.2006 08:00 12,2 C 100 % 1017 hPa 0,0 l/m W-SW 3,7 km/h (1 Bft)
26.09.2006 09:00 12,2 C 100 % 1017 hPa 1,0 l/m W-SW 4,4 km/h (1 Bft)
26.09.2006 10:00 12,4 C 100 % 1018 hPa 0,0 l/m W-SW 3,8 km/h (1 Bft)
26.09.2006 11:00 12,9 C 100 % 1018 hPa 1,0 l/m SW 4,3 km/h (1 Bft)
26.09.2006 12:00 13,4 C 100 % 1018 hPa 0,0 l/m W-SW 4,4 km/h (1 Bft)
26.09.2006 13:00 13,9 C 100 % 1018 hPa 0,0 l/m W-SW 0,9 km/h (0 Bft)
26.09.2006 14:00 14,1 C 99 % 1018 hPa 0,0 l/m S 1,3 km/h (1 Bft)
26.09.2006 15:00 14,1 C 100 % 1018 hPa 1,0 l/m S 2,0 km/h (1 Bft)
26.09.2006 16:00 14,1 C 100 % 1018 hPa 0,0 l/m N 0,0 km/h (0 Bft)
26.09.2006 17:00 14,1 C 100 % 1019 hPa 0,0 l/m NW 2,1 km/h (1 Bft)
26.09.2006 18:00 13,7 C 100 % 1019 hPa 1,0 l/m N 0,4 km/h (0 Bft)
26.09.2006 19:00 13,5 C 100 % 1019 hPa 0,0 l/m N 0,0 km/h (0 Bft)
26.09.2006 20:00 13,4 C 100 % 1020 hPa 0,0 l/m N 0,0 km/h (0 Bft)
26.09.2006 21:00 13,3 C 100 % 1020 hPa 0,0 l/m N 0,0 km/h (0 Bft)
26.09.2006 22:00 13,3 C 100 % 1020 hPa 0,0 l/m N 0,0 km/h (0 Bft)
26.09.2006 23:00 13,3 C 100 % 1020 hPa 0,0 l/m N 0,0 km/h (0 Bft)
27.09.2006 00:00 13,3 C 100 % 1020 hPa 0,0 l/m N 0,0 km/h (0 Bft)
27.09.2006 01:00 13,3 C 100 % 1020 hPa 0,0 l/m N 0,0 km/h (0 Bft)
27.09.2006 02:00 13,2 C 100 % 1019 hPa 0,0 l/m N 0,0 km/h (0 Bft)
27.09.2006 03:00 13,2 C 100 % 1019 hPa 0,0 l/m N 0,0 km/h (0 Bft)
27.09.2006 04:00 13,0 C 100 % 1019 hPa 0,0 l/m N 0,0 km/h (0 Bft)
27.09.2006 05:00 12,9 C 100 % 1019 hPa 0,0 l/m N 0,0 km/h (0 Bft)
27.09.2006 06:00 12,7 C 100 % 1019 hPa 0,0 l/m N 0,0 km/h (0 Bft)
27.09.2006 07:00 12,5 C 100 % 1019 hPa 0,0 l/m N 0,0 km/h (0 Bft)
27.09.2006 08:00 12,7 C 100 % 1019 hPa 0,0 l/m N 0,0 km/h (0 Bft)
27.09.2006 09:00 13,3 C 100 % 1019 hPa 0,0 l/m N 0,0 km/h (0 Bft)
27.09.2006 10:00 13,9 C 100 % 1019 hPa 0,0 l/m N 0,3 km/h (0 Bft)
27.09.2006 11:00 14,4 C 97 % 1019 hPa 0,0 l/m N-NW 0,6 km/h (0 Bft)
27.09.2006 12:00 15,2 C 89 % 1018 hPa 0,0 l/m O-NO 3,7 km/h (1 Bft)
27.09.2006 13:00 16,4 C 79 % 1018 hPa 0,0 l/m O 7,3 km/h (2 Bft)
27.09.2006 14:00 16,7 C 76 % 1018 hPa 0,0 l/m N 4,4 km/h (1 Bft)
27.09.2006 15:00 16,6 C 80 % 1018 hPa 0,0 l/m NW 3,8 km/h (1 Bft)
27.09.2006 16:00 16,0 C 84 % 1017 hPa 0,0 l/m N 2,3 km/h (1 Bft)
27.09.2006 17:00 15,7 C 85 % 1017 hPa 0,0 l/m N-NO 6,4 km/h (2 Bft)
27.09.2006 18:00 15,1 C 86 % 1016 hPa 0,0 l/m NO 1,4 km/h (1 Bft)
27.09.2006 19:00 13,7 C 93 % 1017 hPa 0,0 l/m N 0,0 km/h (0 Bft)
27.09.2006 20:00 12,6 C 98 % 1017 hPa 0,0 l/m N 0,0 km/h (0 Bft)
27.09.2006 21:00 12,7 C 100 % 1017 hPa 0,0 l/m N 0,0 km/h (0 Bft)
27.09.2006 22:00 13,0 C 100 % 1017 hPa 0,0 l/m N 0,0 km/h (0 Bft)
27.09.2006 23:00 12,9 C 100 % 1016 hPa 0,0 l/m N 0,0 km/h (0 Bft)
28.09.2006 00:00 12,3 C 100 % 1016 hPa 0,0 l/m NW 1,7 km/h (1 Bft)
28.09.2006 01:00 11,7 C 100 % 1015 hPa 0,0 l/m W-NW 2,1 km/h (1 Bft)
28.09.2006 02:00 11,1 C 100 % 1015 hPa 0,0 l/m NW 4,9 km/h (1 Bft)
28.09.2006 03:00 11,0 C 100 % 1015 hPa 0,0 l/m N 2,9 km/h (1 Bft)
28.09.2006 04:00 10,6 C 100 % 1015 hPa 0,0 l/m N 0,1 km/h (0 Bft)
28.09.2006 05:00 10,5 C 100 % 1015 hPa 0,0 l/m N 0,0 km/h (0 Bft)
28.09.2006 06:00 10,6 C 100 % 1015 hPa 0,0 l/m O-NO 0,5 km/h (0 Bft)
28.09.2006 07:00 10,6 C 100 % 1015 hPa 0,0 l/m N 0,0 km/h (0 Bft)
28.09.2006 08:00 10,9 C 100 % 1015 hPa 0,0 l/m NW 0,2 km/h (0 Bft)
28.09.2006 09:00 11,7 C 100 % 1016 hPa 0,0 l/m N 0,1 km/h (0 Bft)
28.09.2006 10:00 12,7 C 100 % 1016 hPa 0,0 l/m N 0,0 km/h (0 Bft)
28.09.2006 11:00 13,7 C 99 % 1016 hPa 0,0 l/m N 1,2 km/h (1 Bft)
28.09.2006 12:00 14,8 C 90 % 1015 hPa 0,0 l/m O-NO 1,2 km/h (1 Bft)
28.09.2006 13:00 15,4 C 82 % 1015 hPa 0,0 l/m N 4,9 km/h (1 Bft)
28.09.2006 14:00 15,5 C 83 % 1015 hPa 0,0 l/m NO 6,0 km/h (2 Bft)
28.09.2006 15:00 15,6 C 80 % 1015 hPa 0,0 l/m N-NO 6,2 km/h (2 Bft)
28.09.2006 16:00 15,3 C 79 % 1015 hPa 0,0 l/m N-NO 6,9 km/h (2 Bft)
28.09.2006 17:00 15,0 C 82 % 1015 hPa 0,0 l/m N-NO 4,7 km/h (1 Bft)
28.09.2006 18:00 14,8 C 84 % 1015 hPa 0,0 l/m N 3,4 km/h (1 Bft)
28.09.2006 19:00 14,3 C 89 % 1015 hPa 0,0 l/m N-NW 2,7 km/h (1 Bft)
28.09.2006 20:00 13,3 C 94 % 1015 hPa 0,0 l/m N-NW 1,8 km/h (1 Bft)
28.09.2006 21:00 12,3 C 97 % 1015 hPa 0,0 l/m N 0,0 km/h (0 Bft)
28.09.2006 22:00 11,6 C 100 % 1015 hPa 0,0 l/m N 0,0 km/h (0 Bft)
28.09.2006 23:00 11,2 C 100 % 1015 hPa 0,0 l/m N 0,0 km/h (0 Bft)
29.09.2006 00:00 10,8 C 100 % 1015 hPa 0,0 l/m NW 0,2 km/h (0 Bft)
29.09.2006 01:00 10,3 C 100 % 1015 hPa 0,0 l/m N 0,0 km/h (0 Bft)
29.09.2006 02:00 9,7 C 100 % 1015 hPa 0,0 l/m N 0,0 km/h (0 Bft)
29.09.2006 03:00 9,6 C 100 % 1015 hPa 0,0 l/m N 0,0 km/h (0 Bft)
29.09.2006 04:00 9,9 C 100 % 1015 hPa 0,0 l/m N 0,0 km/h (0 Bft)
29.09.2006 05:00 10,0 C 100 % 1015 hPa 0,0 l/m N 0,0 km/h (0 Bft)
29.09.2006 06:00 10,0 C 100 % 1015 hPa 0,0 l/m N 0,0 km/h (0 Bft)
29.09.2006 07:00 10,0 C 100 % 1015 hPa 0,0 l/m N 0,0 km/h (0 Bft)
29.09.2006 08:00 10,8 C 100 % 1015 hPa 0,0 l/m S 0,5 km/h (0 Bft)
29.09.2006 09:00 11,8 C 100 % 1016 hPa 0,0 l/m S 7,2 km/h (2 Bft)
29.09.2006 10:00 12,8 C 100 % 1016 hPa 0,0 l/m S 4,5 km/h (1 Bft)
29.09.2006 11:00 13,5 C 100 % 1016 hPa 0,0 l/m S-SO 4,1 km/h (1 Bft)
29.09.2006 12:00 15,4 C 99 % 1015 hPa 0,0 l/m S-SO 2,8 km/h (1 Bft)
29.09.2006 13:00 17,9 C 80 % 1015 hPa 0,0 l/m S 4,8 km/h (1 Bft)
29.09.2006 14:00 20,3 C 64 % 1014 hPa 0,0 l/m S-SW 6,8 km/h (2 Bft)
29.09.2006 15:00 20,8 C 62 % 1014 hPa 0,0 l/m S-SW 6,5 km/h (2 Bft)
29.09.2006 16:00 19,9 C 61 % 1014 hPa 0,0 l/m S 5,1 km/h (1 Bft)
29.09.2006 17:00 19,3 C 65 % 1014 hPa 0,0 l/m S 1,8 km/h (1 Bft)
29.09.2006 18:00 17,6 C 75 % 1014 hPa 0,0 l/m N 0,0 km/h (0 Bft)
29.09.2006 19:00 15,7 C 84 % 1014 hPa 0,0 l/m N 0,0 km/h (0 Bft)
29.09.2006 20:00 14,2 C 92 % 1015 hPa 0,0 l/m N 0,0 km/h (0 Bft)
29.09.2006 21:00 13,3 C 96 % 1015 hPa 0,0 l/m N 0,0 km/h (0 Bft)
29.09.2006 22:00 12,6 C 98 % 1015 hPa 0,0 l/m N 0,0 km/h (0 Bft)
29.09.2006 23:00 12,1 C 100 % 1015 hPa 0,0 l/m N 0,0 km/h (0 Bft)
30.09.2006 00:00 11,5 C 100 % 1015 hPa 0,0 l/m N 0,0 km/h (0 Bft)
30.09.2006 01:00 11,2 C 100 % 1015 hPa 0,0 l/m N 0,0 km/h (0 Bft)
30.09.2006 02:00 10,8 C 100 % 1015 hPa 0,0 l/m N 0,0 km/h (0 Bft)
30.09.2006 03:00 10,5 C 100 % 1015 hPa 0,0 l/m N 0,0 km/h (0 Bft)
30.09.2006 04:00 10,2 C 100 % 1015 hPa 0,0 l/m N 0,0 km/h (0 Bft)
30.09.2006 05:00 10,1 C 100 % 1016 hPa 0,0 l/m N 0,0 km/h (0 Bft)
30.09.2006 06:00 10,4 C 100 % 1016 hPa 0,0 l/m N 0,0 km/h (0 Bft)
30.09.2006 07:00 11,3 C 100 % 1017 hPa 0,0 l/m N 0,0 km/h (0 Bft)
30.09.2006 08:00 12,3 C 100 % 1017 hPa 0,0 l/m O 1,5 km/h (1 Bft)
30.09.2006 09:00 13,1 C 100 % 1017 hPa 0,0 l/m S-SO 6,3 km/h (2 Bft)
30.09.2006 10:00 13,9 C 100 % 1018 hPa 0,0 l/m S-SO 8,9 km/h (2 Bft)
30.09.2006 11:00 15,0 C 100 % 1018 hPa 0,0 l/m S 8,2 km/h (2 Bft)
30.09.2006 12:00 17,9 C 80 % 1017 hPa 0,0 l/m S 10,3 km/h (2 Bft)
30.09.2006 13:00 19,8 C 72 % 1017 hPa 0,0 l/m S 10,4 km/h (2 Bft)
30.09.2006 14:00 21,1 C 63 % 1016 hPa 0,0 l/m S 8,1 km/h (2 Bft)
30.09.2006 15:00 21,3 C 60 % 1016 hPa 0,0 l/m S 7,1 km/h (2 Bft)
30.09.2006 16:00 20,7 C 60 % 1016 hPa 0,0 l/m S 5,2 km/h (1 Bft)
30.09.2006 17:00 20,0 C 66 % 1015 hPa 0,0 l/m W-SW 0,3 km/h (0 Bft)
30.09.2006 18:00 18,4 C 77 % 1015 hPa 0,0 l/m N 0,0 km/h (0 Bft)
30.09.2006 19:00 16,7 C 85 % 1016 hPa 0,0 l/m N 0,0 km/h (0 Bft)
30.09.2006 20:00 15,8 C 91 % 1015 hPa 0,0 l/m N 0,0 km/h (0 Bft)
30.09.2006 21:00 15,3 C 94 % 1016 hPa 0,0 l/m W 0,7 km/h (0 Bft)
30.09.2006 22:00 15,2 C 93 % 1016 hPa 0,0 l/m NW 2,7 km/h (1 Bft)
30.09.2006 23:00 15,2 C 96 % 1016 hPa 0,0 l/m W 3,1 km/h (1 Bft)
01.10.2006 00:00 15,3 C 98 % 1016 hPa 1,0 l/m W 5,1 km/h (1 Bft)
01.10.2006 01:00 15,2 C 100 % 1017 hPa 4,0 l/m W-NW 3,3 km/h (1 Bft)
01.10.2006 02:00 14,9 C 100 % 1017 hPa 4,0 l/m S 2,4 km/h (1 Bft)
01.10.2006 03:00 14,5 C 100 % 1017 hPa 1,0 l/m S 10,1 km/h (2 Bft)
01.10.2006 04:00 14,4 C 100 % 1016 hPa 4,0 l/m S 15,2 km/h (3 Bft)
01.10.2006 05:00 14,3 C 100 % 1017 hPa 2,0 l/m S 16,4 km/h (3 Bft)
01.10.2006 06:00 14,2 C 100 % 1017 hPa 1,0 l/m S-SW 16,5 km/h (3 Bft)
01.10.2006 07:00 13,8 C 100 % 1017 hPa 0,0 l/m S-SW 17,0 km/h (3 Bft)
01.10.2006 08:00 13,8 C 100 % 1018 hPa 1,0 l/m S 12,8 km/h (3 Bft)
01.10.2006 09:00 13,9 C 100 % 1018 hPa 0,0 l/m S 6,8 km/h (2 Bft)
01.10.2006 10:00 14,4 C 100 % 1017 hPa 0,0 l/m S-SW 16,7 km/h (3 Bft)
01.10.2006 11:00 15,6 C 97 % 1018 hPa 0,0 l/m S-SW 14,2 km/h (3 Bft)
01.10.2006 12:00 16,1 C 93 % 1018 hPa 0,0 l/m S-SW 11,2 km/h (2 Bft)
01.10.2006 13:00 16,1 C 94 % 1017 hPa 1,0 l/m S-SW 9,8 km/h (2 Bft)
01.10.2006 14:00 15,8 C 96 % 1018 hPa 0,0 l/m S 8,0 km/h (2 Bft)
01.10.2006 15:00 15,9 C 98 % 1017 hPa 0,0 l/m S 5,6 km/h (1 Bft)
01.10.2006 16:00 15,9 C 98 % 1017 hPa 0,0 l/m S 3,1 km/h (1 Bft)
01.10.2006 17:00 15,6 C 99 % 1017 hPa 1,0 l/m S 4,1 km/h (1 Bft)
01.10.2006 18:00 15,3 C 100 % 1017 hPa 3,0 l/m S 12,4 km/h (3 Bft)
01.10.2006 19:00 15,2 C 100 % 1018 hPa 1,0 l/m S 13,4 km/h (3 Bft)
01.10.2006 20:00 15,0 C 100 % 1017 hPa 1,0 l/m S 14,9 km/h (3 Bft)
01.10.2006 21:00 14,8 C 100 % 1017 hPa 0,0 l/m S 11,1 km/h (2 Bft)
01.10.2006 22:00 14,8 C 100 % 1017 hPa 0,0 l/m S-SW 11,6 km/h (2 Bft)
01.10.2006 23:00 14,7 C 100 % 1017 hPa 0,0 l/m S-SW 12,6 km/h (3 Bft)
Min-Datum _ 29.09.06 29.09.06 25.09.06 - - 25.09.06
_ Min-Zeit 02:39 16:41 00:00 - - 00:00
Minimum _ 9,4 C 56 % 1010 hPa - - 0,0 km/h (0 Bft)
Max-Datum _ 30.09.06 25.09.06 26.09.06 25.09.06 - 01.10.06
_ Max-Zeit 15:34 19:15 20:34 23:17 - 07:23
Maximum _ 21,6 C 100 % 1020 hPa 10,0 l/m - 27,4 km/h
S-SW (4 Bft)
Durchschnitt _ 14,0 C 95 % 1017 hPa #65,0 l/m S 3,8 km/h (1 Bft)

Durchschnitt Minimum Temp.13,7 C
Durchschnitt Maximum Temp.14,2 C